Regional & State Weather Roundups


485 
ASCA44 KEWX 241520
RWRMX 
LATIN AMERICA AND CARIBBEAN REGIONAL WEATHER ROUNDUP
NATIONAL WEATHER SERVICE AUSTIN/SAN ANTONIO TX
1000 AM CDT MON JUN 24 2019
NOTE: "FAIR" INDICATED FEW OR NO CLOUDS BELOW 12,000 FEET WITH NO
SIGNIFICANT WEATHER AND/OR OBSTRUCTIONS TO VISIBILITY.
BAJA CALIFORNIA
  
CITY           SKY/WX    TMP DP  RH WIND       PRES   REMARKS
LORETO         SUNNY     84  61  45 CALM      29.82R                  
LA PAZ         SUNNY     73  52  46 SW9       29.88R                  
MEXICALI       SUNNY     77  57  50 SE8       29.80R                  
S.J. DEL CABO  SUNNY     84  54  34 CALM      29.89R                  
TIJUANA        CLOUDY    63  59  88 SW5       29.96R                  
NORTHWESTERN MEXICO
  
CITY           SKY/WX    TMP DP  RH WIND       PRES   REMARKS
CULIACAN       SUNNY     82  68  61 SE6       29.85S                  
DURANGO        SUNNY     70  45  40 CALM      30.21R                  
GUAYMAS        SUNNY     82  63  51 CALM      29.79R                  
HERMOSILLO     SUNNY     82  37  20 SE5       29.88R                  
CD. JUAREZ     SUNNY     77  23  13 N6        30.06R                  
LOS MOCHIS     SUNNY     79  64  61 CALM      29.85                   
OBREGON        SUNNY     81  59  47 E2        29.82R                  
NORTHEASTERN MEXICO
  
CITY           SKY/WX    TMP DP  RH WIND       PRES   REMARKS
CHIHUAHUA      SUNNY     79  21  11 CALM      30.10R                  
MATAMOROS      PTSUNNY   88  81  79 S15       29.85S HX 105           
MONCLOVA         N/A    N/A N/A N/A MISG        N/A                   
MONTERREY      CLOUDY    82  73  74 SE9       29.84R                  
NUEVO LAREDO   PTSUNNY   84  75  74 S10       29.84R HX  92           
PIEDRAS NEGRAS SUNNY     86  70  58 SE5       29.84R HX  90           
REYNOSA        PTSUNNY   88  75  66 SE8G29    29.82S HX  97           
SALTILLO       SUNNY     81  59  47 N6        30.08S                  
TORREON        MOSUNNY   86  55  35 CALM      29.99R                  
CD. VICTORIA   MOSUNNY   84  73  70 SE14G28   29.84S HX  91           
WESTERN MEXICO
  
CITY           SKY/WX    TMP DP  RH WIND       PRES   REMARKS
AGUASCALIENTES SUNNY     70  43  37 S12       30.23R                  
COLIMA         PTSUNNY   73  70  88 CALM      30.00R                  
DEL BAJIO      PTSUNNY   70  59  68 CALM      30.28R                  
GUADALAJARA    SUNNY     75  46  35 CALM      30.16S                  
MANZANILLO     MOSUNNY   81  72  74 N6        29.87R                  
MAZATLAN       MOSUNNY   82  73  74 S3        29.86R                  
P. VALLARTA    SUNNY     84  66  54 CALM      29.86R                  
URUAPAN        DRIZZLE   64  63  94 NE7       30.20R                  
ZACATECAS      PTSUNNY   64  50  59 S6        30.23R                  
CENTRAL MEXICO
  
CITY           SKY/WX    TMP DP  RH WIND       PRES   REMARKS
CUERNAVACA     CLOUDY    68  64  88 E2        30.17S                  
MEXICO CITY    CLOUDY    61  54  77 E6        30.34R                  
MORELIA        PTSUNNY   68  63  83 S3        30.24R                  
POZA RICA      PTSUNNY   86  81  84 CALM      29.84S HX 102           
PUEBLA         PTSUNNY   61  55  82 S5        30.34R                  
QUERETARO      MOSUNNY   66  57  72 SE5       30.30R                  
S. LUIS POTOSI MOSUNNY   72  61  68 S6        30.20R FOG              
TAMPICO        MOSUNNY   88  81  79 SE7       29.83F HX 105           
TOLUCA         CLOUDY    59  52  77 SE10      30.40R                  
SOUTHERN MEXICO
  
CITY           SKY/WX    TMP DP  RH WIND       PRES   REMARKS
ACAPULCO       CLOUDY    82  75  78 CALM      29.89R                  
B. DE HUATULCO MOSUNNY   88  73  62 CALM      29.92R HX  96           
OAXACA         PTSUNNY   70  59  68 S3        30.24R                  
P. ESCONDIDO   PTSUNNY   81  72  74 E9        29.90R                  
VERACRUZ       MOSUNNY   86  84  94 S10       29.84R HX 108           
ZIHUATANEJO    CLOUDY    81  75  83 CALM      29.91F                  
YUCATAN PENINSULA
  
CITY           SKY/WX    TMP DP  RH WIND       PRES   REMARKS
CAMPECHE       SUNNY     84  75  74 SE12      29.95S HX  92           
CANCUN         PTSUNNY   88  79  74 SE10      30.01S HX 102           
CHETUMAL       PTSUNNY   86  77  74 SE12      29.99R HX  97           
CD. DEL CARMEN PTSUNNY   84  75  74 SE15      29.92S HX  92           
COZUMEL        MOSUNNY   88  77  70 SE9       29.99S HX 100           
MERIDA         SUNNY     88  72  58 SE14      29.97S HX  94           
MINATITLAN     MOSUNNY   86  72  62 S9        29.86F HX  92           
TAPACHULA      MOSUNNY   86  77  74 E2        29.90R HX  97           
TUX. GUTIERREZ PTSUNNY   81  72  74 SE6       29.99S                  
VILLAHERMOSA   CLOUDY    86  75  70 E7        29.90S HX  95           
CENTRAL AMERICA
  
CITY           SKY/WX    TMP DP  RH WIND       PRES   REMARKS
BELIZE CITY    MOSUNNY   88  77  70 E10       29.96R HX 100           
MANAGUA        MOSUNNY   86  72  62 E9        29.92R HX  92           
CARIBBEAN
  
CITY           SKY/WX    TMP DP  RH WIND       PRES   REMARKS
ARUBA          MOSUNNY   88  73  62 E22       29.94S HX  96           
CURACAO        MOSUNNY   86  75  70 E15       29.94S HX  95           
NASSAU         MOSUNNY   84  75  74 NW6       30.06S HX  92           
SAN JUAN       MOSUNNY   88  75  66 E15G25    30.03S HX  97           
SANTO DOMINGO  MOSUNNY   86  75  70 E14       30.00S HX  95           
ST. CROIX      MOSUNNY   88  73  62 NE14      30.03  HX  96           
ST. KITTS      MOSUNNY   86  77  74 E14       30.03S HX  97           
ST. MAARTEN    MOSUNNY   86  75  70 E10       30.03S HX  95           
ST. THOMAS     MOSUNNY   90  73  58 E12       30.03S HX  98           
$$